This demonstration page uses our WeatherBlox Daily Observations layout. Learn more.

Left ArrowRight Arrow

36.17497, -115.13722

Hourly Observations for September 13, 2020

Temp ( °F °C ) Dew Point ( °F °C ) Humidity (%) Winds ( mph kmh ) Pressure ( in mb ) Visibility ( mi km ) Precip ( " mm )
12:53 am 00:53 Clear 77 25 25 -3.9 14 14 N N/A 29.89 1012 10 16 N/A
1:53 am 01:53 Clear 79 26.1 19 -7.2 10 10 N 7 11 29.90 1012 10 16 N/A
2:53 am 02:53 Clear 73 22.8 22 -5.6 15 15 NW 7 11 29.90 1013 10 16 N/A
3:53 am 03:53 Clear 73 22.8 23 -5 15 15 N N/A 29.91 1013 10 16 N/A
4:53 am 04:53 Clear 73 22.8 25 -3.9 17 17 NW 5 7 29.91 1013 10 16 N/A
5:53 am 05:53 Clear 69 20.6 26 -3.3 20 20 NNW 3 6 29.94 1014 10 16 N/A
6:53 am 06:53 Sunny 71 21.7 26 -3.3 19 19 W 7 11 29.96 1015 10 16 N/A
7:53 am 07:53 Sunny 76 24.4 26 -3.3 16 16 WNW 5 7 29.97 1015 10 16 N/A
8:53 am 08:53 Sunny 81 27.2 30 -1.1 16 16 SE 6 9 29.98 1015 10 16 N/A
9:53 am 09:53 Sunny 86 30 22 -5.6 9 9 SE 5 7 29.99 1016 10 16 N/A
10:53 am 10:53 Sunny 89 31.7 20 -6.7 8 8 SE 5 7 29.99 1016 10 16 N/A
11:53 am 11:53 Sunny 94 34.4 21 -6.1 7 7 E 7 11 29.96 1015 10 16 N/A
12:53 pm 12:53 Sunny 96 35.6 21 -6.1 6 6 NNE 7 11 29.95 1014 10 16 N/A
1:53 pm 13:53 Sunny 99 37.2 22 -5.6 6 6 ENE 5 7 29.91 1013 10 16 N/A
2:53 pm 14:53 Sunny 100 37.8 22 -5.6 6 6 VRB 3 6 29.89 1012 10 16 N/A
3:53 pm 15:53 Sunny 99 37.2 20 -6.7 6 6 SSE 7 11 29.88 1012 10 16 N/A
4:53 pm 16:53 Sunny 99 37.2 20 -6.7 6 6 S 6 9 29.87 1012 10 16 N/A
5:53 pm 17:53 Sunny 99 37.2 18 -7.8 5 5 ESE 3 6 29.87 1012 10 16 N/A
6:53 pm 18:53 Clear 97 36.1 20 -6.7 6 6 WSW 3 6 29.87 1012 10 16 N/A
7:53 pm 19:53 Clear 93 33.9 24 -4.4 8 8 WSW 6 9 29.88 1012 10 16 N/A
8:53 pm 20:53 Clear 88 31.1 26 -3.3 10 10 W 7 11 29.91 1013 10 16 N/A
9:53 pm 21:53 Clear 85 29.4 22 -5.6 10 10 WNW 9 15 29.91 1013 10 16 N/A
10:53 pm 22:53 Clear 83 28.3 24 -4.4 11 11 W 5 7 29.93 1013 10 16 N/A
11:53 pm 23:53 Clear 83 28.3 25 -3.9 12 12 W 3 6 29.93 1014 10 16 N/A

Powered by AerisWeather